sat.trackr.live / text

‹ back to catalog

STARLINK-35510

NORAD 66397 · 2025-257T

PAYLOAD ACTIVE UNKNOWN

§ Identity

Operator
Country
US
Launch date
2025-11-09
Launch site
AFETR
Launch vehicle
Mass (kg)
RCS (m²)

Purposes: comms

External: N2YO · Heavens-Above · Gunter

§ Orbital elements

Epoch: 2026-09-20T20:30:36.950976Z

Period
93.85 min
Inclination
53.1598°
Eccentricity
0.0000919
Mean motion
15.34411406 rev/d
Perigee alt
462.0 km
Apogee alt
463.3 km
Semi-major
6,840.8 km
B*
4.9123e-4
RAAN
27.6971°
Arg perigee
89.6197°
Mean anomaly
270.4911°
Rev number
4,965

§ Raw data

STARLINK-355101 66397U 25257T   26263.85459434  .00016263  00000+0  49123-3 0  99922 66397  53.1598  27.6971 0000919  89.6197 270.4911 15.34411406 49652

JSON: /api/v1/satellites/66397 · /tle

For live sub-satellite position, see the globe view (requires WebGL).

§ Visibility from observer

Set your observer location to see the next 7 days of passes ≥ 10°. The values pass through the URL so the page stays shareable.

No JS? Fill the form by hand. The geolocation button needs JavaScript.